星链-34285 (STARLINK-34285)

导读

STARLINK-34285是美国SpaceX星链互联网卫星星座的组成卫星,于2025年8月4日从美国发射升空,是星链低轨宽带星座批量部署任务中的一员。星链星座旨在为全球提供低延迟高速互联网服务,该卫星入轨后将进一步拓展星链服务覆盖范围,补充优化星座网络能力。

基本信息
目录编号:
65101
目录名称:
STARLINK-34285
国际标识:
2025-167Z
轨道中心:
EARTH
卫星名称:
星链-34285
卫星全名:
星链-34285 (STARLINK-34285)
卫星状态:
在轨 (已飞行313 天)
发射日期:
2025-08-04 UTC
国别 :
美国 (US)
星等 :
--
轨道信息
数据来源 国际轨道数据
星历时间: 2026-06-12T23:46:26+0800
1天前
查看轨道信息
半长轴: 6840.805km
偏心率: 0.0001306
轨道倾角: 53.161°
近地点辐角 77.168°
升交点赤经 304.560°
平近点角 282.947°
近地点: 461.774km
远地点: 463.562km
周期: 93.847分钟
每日圈数: 15.344121
详细信息
固有亮度:
5
最大亮度:
2.5
卫星平台:
Starlink V1.0
覆盖范围:
全球
运营商:
太空探索技术公司
运营商所在国:
美国
制造商(研发单位):
太空探索技术公司
制造商所在国:
美国
使用方式:
暂无
卫星简介
Starlink 计划是 SpaceX 推出的全球卫星互联网项目,通过发射低轨道卫星,为全球尤其是偏远地区提供高速、低延迟的互联网服务。自 2019 年起,Starlink 已部署数千颗卫星,旨在缩小全球数字鸿沟,推动互联网普及。该项目还为军事、航空等行业提供通信支持,带来广泛经济效益。
2D轨道图
3D轨道图
轨道高度分析图
轨道倾角分析图
轨道综合分析图
查看轨道综合分析图